CCA2117 ZSJN-ZBAD

Flight info

Callsign CCA2117
Flight time N/A
Altitude 19700
Route TUM91D TUMLO W157 BEKDOW157 AVBOX AVBOX9M
Aircraft A20N/M-SDE2E3FGHIRWXY/LB1

Departure

Time 2026-05-07 07:51
Airport Jinan Yaoqiang International Airport (ZSJN)

Arrival

Time N/A
Airport Beijing Daxing International Airport (ZBAD)
Time Latitude Longitude Altitude Speed Heading
2026-05-07 07:33 36.85105 117.20888 83 ft 0 kts 270°
2026-05-07 07:41 36.85105 117.20898 83 ft 3 kts 270°
2026-05-07 07:41 36.85105 117.20931 83 ft 3 kts 270°
2026-05-07 07:41 36.85107 117.20963 83 ft 3 kts 245°
2026-05-07 07:42 36.85126 117.20982 83 ft 3 kts 192°
2026-05-07 07:42 36.85133 117.20982 83 ft 0 kts 179°
2026-05-07 07:45 36.85130 117.20982 83 ft 1 kts 180°
2026-05-07 07:46 36.85112 117.20982 83 ft 4 kts 180°
2026-05-07 07:46 36.85074 117.20982 83 ft 6 kts 179°
2026-05-07 07:46 36.85020 117.20984 83 ft 8 kts 179°
2026-05-07 07:46 36.84964 117.21008 83 ft 9 kts 118°
2026-05-07 07:47 36.84935 117.21088 83 ft 10 kts 114°
2026-05-07 07:47 36.84904 117.21172 83 ft 10 kts 115°
2026-05-07 07:47 36.84872 117.21255 83 ft 10 kts 109°
2026-05-07 07:47 36.84856 117.21341 83 ft 9 kts 108°
2026-05-07 07:48 36.84800 117.21374 83 ft 10 kts 178°
2026-05-07 07:48 36.84724 117.21375 83 ft 11 kts 179°
2026-05-07 07:48 36.84638 117.21375 83 ft 12 kts 180°
2026-05-07 07:48 36.84545 117.21374 83 ft 13 kts 179°
2026-05-07 07:49 36.84446 117.21375 83 ft 15 kts 179°
2026-05-07 07:49 36.84336 117.21375 83 ft 16 kts 180°
2026-05-07 07:49 36.84235 117.21375 83 ft 12 kts 179°
2026-05-07 07:49 36.84150 117.21376 83 ft 11 kts 168°
2026-05-07 07:50 36.84119 117.21440 83 ft 9 kts 88°
2026-05-07 07:50 36.84121 117.21529 83 ft 10 kts 85°
2026-05-07 07:50 36.84130 117.21596 83 ft 6 kts 38°
2026-05-07 07:50 36.84161 117.21600 83 ft 0 kts
2026-05-07 07:51 36.84186 117.21600 83 ft 21 kts
2026-05-07 07:51 36.84610 117.21598 84 ft 96 kts 360°
2026-05-07 07:51 36.85487 117.21603 111 ft 150 kts
2026-05-07 07:51 36.86501 117.21609 766 ft 146 kts 359°
2026-05-07 07:52 36.87500 117.21561 1473 ft 145 kts 359°
2026-05-07 07:52 36.88507 117.21536 2082 ft 150 kts 360°
2026-05-07 07:52 36.89592 117.21518 2506 ft 165 kts 360°
2026-05-07 07:52 36.90794 117.21500 2919 ft 182 kts 360°
2026-05-07 07:53 36.92112 117.21479 3360 ft 198 kts 360°
2026-05-07 07:53 36.93564 117.21458 3766 ft 220 kts 359°
2026-05-07 07:53 36.95112 117.21433 4529 ft 226 kts 359°
2026-05-07 07:53 36.96681 117.21409 5345 ft 228 kts 359°
2026-05-07 07:54 36.98264 117.21413 6202 ft 230 kts
2026-05-07 07:54 36.99856 117.21457 7047 ft 232 kts
2026-05-07 07:54 37.01450 117.21504 7887 ft 234 kts
2026-05-07 07:54 37.03075 117.21549 8718 ft 236 kts 359°
2026-05-07 07:55 37.04722 117.21591 9547 ft 237 kts 359°
2026-05-07 07:55 37.06371 117.21632 10221 ft 240 kts 358°
2026-05-07 07:55 37.08033 117.21560 10609 ft 240 kts 345°
2026-05-07 07:55 37.09483 117.20628 10797 ft 238 kts 318°
2026-05-07 07:56 37.10463 117.18935 10863 ft 243 kts 295°
2026-05-07 07:56 37.10824 117.16849 10885 ft 250 kts 281°
2026-05-07 07:56 37.11002 117.14685 10886 ft 251 kts 281°
2026-05-07 07:56 37.11185 117.12496 10884 ft 251 kts 281°
2026-05-07 07:57 37.11363 117.10346 10886 ft 249 kts 281°
2026-05-07 07:57 37.11541 117.08194 10886 ft 250 kts 281°
2026-05-07 07:57 37.11721 117.06016 10882 ft 250 kts 281°
2026-05-07 07:57 37.11898 117.03851 10900 ft 253 kts 281°
2026-05-07 07:58 37.12081 117.01640 11331 ft 259 kts 281°
2026-05-07 07:58 37.12261 116.99441 12244 ft 256 kts 281°
2026-05-07 07:58 37.12439 116.97245 13103 ft 255 kts 281°
2026-05-07 07:58 37.12617 116.95042 13867 ft 256 kts 281°
2026-05-07 07:59 37.12796 116.92831 14657 ft 256 kts 281°
2026-05-07 07:59 37.12975 116.90633 15444 ft 256 kts 281°
2026-05-07 07:59 37.13153 116.88447 16192 ft 256 kts 281°
2026-05-07 07:59 37.13329 116.86253 16955 ft 255 kts 281°
2026-05-07 08:00 37.13721 116.84119 17672 ft 250 kts 297°
2026-05-07 08:00 37.14695 116.82377 18390 ft 249 kts 314°
2026-05-07 08:00 37.16136 116.81117 18890 ft 263 kts 330°
2026-05-07 08:00 37.17958 116.80465 19176 ft 285 kts 340°
2026-05-07 08:01 37.19946 116.79924 19438 ft 299 kts 339°
2026-05-07 08:01 37.22019 116.79293 19686 ft 312 kts 336°
2026-05-07 08:01 37.24144 116.78503 19769 ft 330 kts 335°
2026-05-07 08:01 37.26402 116.77638 19781 ft 350 kts 336°
2026-05-07 08:02 37.28812 116.76720 19790 ft 364 kts 336°
2026-05-07 08:02 37.31234 116.75806 19787 ft 367 kts 336°
2026-05-07 08:02 37.33683 116.74886 19786 ft 369 kts 336°
2026-05-07 08:02 37.36149 116.73958 19789 ft 369 kts 337°
2026-05-07 08:03 37.38619 116.73026 19793 ft 368 kts 337°
2026-05-07 08:03 37.41072 116.72101 19777 ft 368 kts 337°
2026-05-07 08:03 37.43525 116.71171 19792 ft 373 kts 337°
2026-05-07 08:03 37.46046 116.70209 19794 ft 389 kts 337°
2026-05-07 08:04 37.48656 116.69214 19783 ft 394 kts 338°
2026-05-07 08:04 37.51285 116.68218 19778 ft 395 kts 338°
2026-05-07 08:04 37.53925 116.67220 19786 ft 394 kts 338°
2026-05-07 08:04 37.56522 116.66233 19792 ft 393 kts 338°
2026-05-07 08:05 37.59156 116.65232 19779 ft 394 kts 338°
2026-05-07 08:05 37.61783 116.64230 19786 ft 394 kts 338°
2026-05-07 08:05 37.64405 116.63231 19789 ft 394 kts 338°
2026-05-07 08:05 37.67051 116.62225 19780 ft 395 kts 338°
2026-05-07 08:06 37.69675 116.61223 19786 ft 394 kts 338°
2026-05-07 08:06 37.72272 116.60232 19784 ft 395 kts 338°
2026-05-07 08:06 37.74904 116.59224 19780 ft 395 kts 338°
2026-05-07 08:06 37.77554 116.58212 19778 ft 395 kts 338°
2026-05-07 08:07 37.80188 116.57205 19774 ft 394 kts 338°
2026-05-07 08:07 37.82812 116.56198 19791 ft 394 kts 338°
2026-05-07 08:07 37.85429 116.55196 19793 ft 394 kts 338°
2026-05-07 08:07 37.88028 116.54198 19776 ft 394 kts 338°
2026-05-07 08:08 37.90661 116.53187 19780 ft 394 kts 338°
2026-05-07 08:08 37.93275 116.52180 19782 ft 393 kts 338°
2026-05-07 08:08 37.95828 116.50990 19788 ft 390 kts 333°
2026-05-07 08:08 37.98261 116.49480 19783 ft 389 kts 327°
2026-05-07 08:09 38.00535 116.47693 19766 ft 380 kts 323°
2026-05-07 08:09 38.02688 116.45770 19780 ft 378 kts 322°
2026-05-07 08:09 38.04845 116.43802 19780 ft 383 kts 321°
2026-05-07 08:09 38.07013 116.41811 19781 ft 384 kts 322°
2026-05-07 08:10 38.09178 116.39821 19779 ft 384 kts 322°
2026-05-07 08:10 38.11337 116.37844 19782 ft 384 kts 322°
2026-05-07 08:10 38.13505 116.35864 19777 ft 385 kts 322°
2026-05-07 08:10 38.15676 116.33875 19785 ft 385 kts 321°
2026-05-07 08:11 38.17841 116.31874 19778 ft 386 kts 321°
2026-05-07 08:11 38.20014 116.29867 19776 ft 385 kts 321°
2026-05-07 08:11 38.22186 116.27864 19776 ft 385 kts 322°
2026-05-07 08:11 38.24501 116.26221 19768 ft 390 kts 336°
2026-05-07 08:12 38.27197 116.25502 19778 ft 399 kts 352°
2026-05-07 08:12 38.29977 116.25801 19767 ft 411 kts
2026-05-07 08:12 38.32733 116.26692 19516 ft 400 kts
2026-05-07 08:12 38.35378 116.27599 19181 ft 390 kts
2026-05-07 08:13 38.37968 116.28497 18804 ft 381 kts
2026-05-07 08:13 38.40484 116.29368 18428 ft 374 kts
2026-05-07 08:13 38.42993 116.30235 18048 ft 371 kts
2026-05-07 08:13 38.45453 116.31083 17674 ft 369 kts
2026-05-07 08:14 38.47937 116.31938 17288 ft 367 kts
2026-05-07 08:14 38.50387 116.32786 16903 ft 364 kts
2026-05-07 08:14 38.52829 116.33630 16498 ft 362 kts 10°
2026-05-07 08:14 38.55244 116.34466 15983 ft 359 kts 10°
2026-05-07 08:15 38.57634 116.35294 15473 ft 355 kts 10°
2026-05-07 08:15 38.59998 116.36112 14966 ft 352 kts 10°
2026-05-07 08:15 38.62339 116.36948 14456 ft 350 kts 13°
2026-05-07 08:15 38.64605 116.38080 13943 ft 349 kts 20°
2026-05-07 08:16 38.66748 116.39568 13438 ft 350 kts 27°
2026-05-07 08:16 38.68757 116.41303 12943 ft 350 kts 30°
2026-05-07 08:16 38.70744 116.43095 12439 ft 348 kts 30°
2026-05-07 08:16 38.72686 116.44859 12012 ft 344 kts 31°
2026-05-07 08:17 38.74639 116.46634 11819 ft 346 kts 31°
2026-05-07 08:17 38.76611 116.48425 11433 ft 344 kts 31°
2026-05-07 08:17 38.78562 116.50198 11053 ft 343 kts 31°
2026-05-07 08:17 38.80474 116.51935 10683 ft 341 kts 31°
2026-05-07 08:18 38.82423 116.53703 10306 ft 340 kts 31°
2026-05-07 08:18 38.84315 116.55425 9936 ft 333 kts 31°
2026-05-07 08:18 38.86191 116.57134 9556 ft 327 kts 32°
2026-05-07 08:18 38.88035 116.58814 9171 ft 321 kts 31°
2026-05-07 08:19 38.89822 116.60443 8803 ft 315 kts 31°
2026-05-07 08:19 38.91604 116.62067 8428 ft 310 kts 32°
2026-05-07 08:19 38.93326 116.63638 8233 ft 299 kts 31°
2026-05-07 08:19 38.94992 116.65163 8105 ft 287 kts 32°
2026-05-07 08:20 38.96568 116.66615 7977 ft 275 kts 32°
2026-05-07 08:20 38.98086 116.68014 7848 ft 266 kts 32°
2026-05-07 08:20 38.99580 116.69385 7653 ft 261 kts 31°
2026-05-07 08:20 39.00809 116.70510 7444 ft 256 kts 31°
2026-05-07 08:21 39.02243 116.71819 7189 ft 251 kts 30°
2026-05-07 08:21 39.03777 116.72777 6853 ft 243 kts 11°
2026-05-07 08:21 39.05436 116.72929 6489 ft 239 kts 353°
2026-05-07 08:21 39.07084 116.72684 6126 ft 239 kts 352°
2026-05-07 08:22 39.08733 116.72417 5758 ft 239 kts 352°
2026-05-07 08:22 39.10389 116.72156 5390 ft 240 kts 352°
2026-05-07 08:22 39.12043 116.71903 5045 ft 239 kts 352°
2026-05-07 08:22 39.13671 116.71577 4755 ft 235 kts 341°
2026-05-07 08:23 39.14966 116.70396 4604 ft 228 kts 309°
2026-05-07 08:23 39.15630 116.68573 4479 ft 225 kts 286°
2026-05-07 08:23 39.15660 116.66575 4360 ft 229 kts 263°
2026-05-07 08:23 39.15031 116.64665 4240 ft 238 kts 239°
2026-05-07 08:24 39.13985 116.62985 4126 ft 241 kts 234°
2026-05-07 08:24 39.12900 116.61343 4004 ft 241 kts 236°
2026-05-07 08:24 39.12098 116.59512 3884 ft 231 kts 259°
2026-05-07 08:24 39.11824 116.57500 3882 ft 229 kts 269°
2026-05-07 08:25 39.11655 116.55449 3875 ft 229 kts 269°
2026-05-07 08:25 39.11493 116.53437 3876 ft 230 kts 269°
2026-05-07 08:25 39.11359 116.51389 3867 ft 226 kts 279°
2026-05-07 08:25 39.11873 116.49576 3858 ft 214 kts 314°
2026-05-07 08:26 39.14487 116.48164 3793 ft 211 kts 354°
2026-05-07 08:26 39.15951 116.47959 3816 ft 213 kts 353°
2026-05-07 08:26 39.17411 116.47742 3825 ft 213 kts 353°
2026-05-07 08:27 39.18899 116.47543 3831 ft 212 kts 353°
2026-05-07 08:27 39.20370 116.47348 3832 ft 213 kts 353°
2026-05-07 08:27 39.21853 116.47138 3834 ft 213 kts 353°
2026-05-07 08:27 39.23312 116.46919 3834 ft 213 kts 353°
2026-05-07 08:28 39.24794 116.46689 3833 ft 213 kts 352°
2026-05-07 08:28 39.26257 116.46456 3836 ft 213 kts 352°
2026-05-07 08:28 39.27721 116.46221 3731 ft 209 kts 352°
2026-05-07 08:28 39.29168 116.45988 3469 ft 208 kts 352°
2026-05-07 08:29 39.30586 116.45761 3205 ft 206 kts 353°
2026-05-07 08:29 39.32005 116.45534 2941 ft 204 kts 353°
2026-05-07 08:29 39.33394 116.45312 2663 ft 197 kts 352°
2026-05-07 08:29 39.34720 116.45102 2412 ft 188 kts 353°
2026-05-07 08:30 39.35976 116.44902 2287 ft 178 kts 353°
2026-05-07 08:30 39.37194 116.44710 2028 ft 173 kts 352°
2026-05-07 08:30 39.38344 116.44527 1802 ft 158 kts 353°
2026-05-07 08:30 39.39385 116.44363 1570 ft 143 kts 353°
2026-05-07 08:31 39.40333 116.44213 1361 ft 132 kts 353°
2026-05-07 08:31 39.41227 116.44072 1205 ft 131 kts 353°
2026-05-07 08:31 39.42130 116.43931 1043 ft 130 kts 350°
2026-05-07 08:31 39.43029 116.43786 889 ft 129 kts 352°
2026-05-07 08:32 39.43928 116.43647 727 ft 130 kts 348°
2026-05-07 08:32 39.44825 116.43501 553 ft 129 kts 350°
2026-05-07 08:32 39.45710 116.43350 348 ft 129 kts 349°
2026-05-07 08:32 39.46604 116.43200 236 ft 127 kts 353°
2026-05-07 08:33 39.47454 116.43072 123 ft 126 kts 353°
2026-05-07 08:33 39.48214 116.42953 89 ft 107 kts 354°